Location: Le Cr�t
(46.6094°N, 6.9102°E)
Time: 05:11:44
(UTC+00:00)

Daily predictions for brighter satellites

Satellite Brightness Start Highest point End
(mag) Time Altitude Azimuth Time Altitude Azimuth Time Altitude Azimuth
Cosmos 2278 Rocket 4.4 03:14:44 19° NE 03:15:01 20° NE 03:19:03 10° E
Cosmos 2333 Rocket 3.6 03:32:03 34° E 03:32:03 34° E 03:36:08 10° NE
Cosmos 2219 Rocket 3.6 03:33:23 34° E 03:33:23 34° E 03:37:47 10° NE
USA 215 4.1 03:42:59 10° NE 03:48:02 39° N 03:48:02 39° N
COSMOS 2428 3.8 03:50:01 39° SE 03:50:51 41° ESE 03:56:10 10° NE
SL-16 R/B 4.3 04:00:40 16° N 04:00:40 16° N 04:01:51 10° NNE
Cosmos 2360 Rocket 3.7 04:05:03 27° N 04:05:03 27° N 04:07:36 10° NNE
Cosmos 2322 Rocket 4.2 04:06:15 17° N 04:06:15 17° N 04:07:43 10° NNE
Cosmos 44 Rocket 4.5 04:08:17 39° NNE 04:08:44 40° NE 04:13:38 10° ESE
ADEOS 3.9 04:10:45 10° NNE 04:15:57 63° ESE 04:17:44 40° SSE
ATLAS 5 CENTAUR R/B 4.1 04:19:14 17° ESE 04:19:14 17° ESE 04:20:21 10° ESE
Cosmos 990 Rocket 4.1 04:19:24 70° E 04:19:24 70° E 04:24:22 10° SSE
ERS-2 3.8 04:20:58 10° SE 04:23:28 32° ESE 04:23:28 32° ESE
IRIDIUM 106 4.2 04:28:50 10° S 04:34:03 86° E 04:39:19 10° N
SL-8 R/B 3.7 04:34:40 78° SE 04:34:40 78° SE 04:39:11 10° ESE
Cosmos 1461 3.8 04:35:33 35° S 04:37:11 53° ESE 04:41:50 10° NE
SJ-12 4.1 04:34:50 10° NNE 04:39:00 70° ESE 04:39:02 70° ESE
Cosmos 1689 Rocket 4.4 04:38:04 10° SE 04:39:51 24° E 04:39:51 24° E
Cosmos 1892 Rocket 4.0 04:43:43 50° S 04:43:43 50° S 04:46:59 10° S
Cosmos 1763 Rocket 3.5 04:40:44 25° SSW 04:43:46 81° ESE 04:49:01 10° NNE
Cosmos 2084 4.0 04:49:48 47° N 04:49:48 47° N 04:53:13 10° NE
Cosmos 1898 Rocket 3.3 04:48:06 55° NW 04:49:14 78° WSW 04:54:23 10° SSE
BREEZE-M DEB (TANK) 3.7 04:48:26 52° WNW 04:49:45 72° N 05:04:33 10° E
Cosmos 841 Rocket 4.5 04:44:58 10° S 04:49:50 46° ESE 04:54:45 10° NNE
Cosmos 921 Rocket 2.8 04:53:25 64° SSW 04:54:03 87° WNW 04:58:17 10° NNE
NOSS 0 Rocket 4.2 04:48:41 10° SSW 04:54:48 67° ESE 05:00:56 10° NNE
Meteor 1-21 Rocket 4.5 04:51:23 10° N 04:57:05 71° ENE 05:02:53 10° SSE
Cosmos 1513 Rocket 4.4 04:52:26 10° S 04:58:46 83° W 05:05:02 10° N
COSMO-SKYMED 1 2.4 04:55:09 10° S 04:59:27 64° WSW 04:59:33 63° W
Cosmos 1340 4.1 04:56:06 10° N 04:59:36 36° ENE 05:03:06 10° SE
CZ-4B R/B 4.4 04:55:19 10° N 04:58:57 49° NNW 04:58:57 49° NNW
Cosmos 2278 Rocket 2.1 04:56:36 26° NNW 04:59:56 89° ENE 05:05:37 10° SSE
METEOR-M 4.3 04:57:05 10° N 05:02:11 46° WNW 05:02:51 44° W
CZ-4B R/B 2.6 04:58:46 10° NNE 05:02:23 82° ESE 05:06:03 10° SSW
Cosmos 1703 4.4 04:58:40 10° N 05:02:24 43° ENE 05:06:07 10° SSE
Cosmos 1943 Rocket 4.2 05:02:34 10° N 05:07:04 24° NE 05:11:34 10° E
Cosmos 1891 Rocket 4.3 05:01:09 10° SSW 05:07:20 71° W 05:13:26 10° N
Cosmos 2322 4.2 05:09:01 37° WNW 05:09:31 37° NW 05:14:50 10° NNE
SAR-Lupe-4 3.4 05:06:47 10° SSE 05:10:22 84° W 05:11:25 44° NNW
Cosmos 1464 Rocket 3.8 05:04:51 10° SSW 05:10:58 72° W 05:17:07 10° N
Cosmos 2237 Rocket 2.5 05:05:43 10° SSW 05:11:19 68° ESE 05:16:59 10° NNE
CZ-2C R/B 3.8 05:07:53 10° SE 05:12:45 41° ENE 05:17:43 10° N
Lacrosse 5 rocket 1.4 05:11:52 43° NNW 05:12:54 61° NE 05:16:37 10° ESE
Cosmos 2333 Rocket 2.6 05:14:07 35° W 05:15:12 39° NW 05:20:30 10° NNE
Lacrosse 4 Rocket 3.9 05:11:50 10° SSE 05:15:16 24° ESE 05:18:46 10° NE
H-2A R/B 2.6 05:12:00 10° NNE 05:15:44 88° ESE 05:19:27 10° SSW
Cosmos 1072 Rocket 4.4 05:09:41 10° SSW 05:15:48 62° WNW 05:22:04 10° N
Cosmos 2219 Rocket 2.5 05:15:10 34° W 05:16:37 41° NW 05:21:55 10° NNE
Cosmos 1544 Rocket 3.4 05:12:53 10° SSW 05:17:12 80° W 05:21:33 10° N
Cosmos 468 Rocket 4.1 05:14:26 22° SW 05:17:35 51° WNW 05:22:46 10° NNE
SAR-Lupe-1 4.0 05:17:38 10° S 05:21:11 64° WSW 05:22:28 36° NW
DMSP B5D1-3 4.5 05:18:40 10° SSE 05:23:47 87° ENE 05:28:55 10° NNW
Cosmos 1937 Rocket 3.6 05:20:43 23° NW 05:23:54 54° WSW 05:28:59 10° S
BREEZE-M DEB (TANK) 3.4 05:20:11 24° WNW 05:25:31 61° SW 05:28:59 10° SE
Cosmos 372 Rocket 4.0 05:20:52 10° NNW 05:26:05 85° ENE 05:31:20 10° SSE
Okean 1-7 Rocket 3.8 05:23:32 21° NNW 05:26:17 46° W 05:30:34 10° SSW
Cosmos 1814 Rocket 4.2 05:21:56 10° SSW 05:27:02 71° ESE 05:32:09 10° NNE
GEOS 3 Rocket 4.0 05:23:23 10° SSE 05:28:33 48° WSW 05:31:32 24° WNW
Envisat 3.1 05:24:08 10° NNE 05:29:15 81° ESE 05:34:20 10° SSW
Cosmos 1328 4.2 05:25:53 10° N 05:29:48 64° E 05:33:41 10° SSE
Cosmos 1400 Rocket 3.1 05:26:34 10° S 05:30:37 71° E 05:34:44 10° NNE
USA 215 4.1 05:25:18 10° ENE 05:31:09 37° N 05:35:23 18° NW
FALCON 9 DEB 3.3 05:31:29 23° SW 05:33:27 68° SSE 05:36:51 10° ENE
NOAA 6 4.5 05:29:00 10° NNE 05:34:11 66° ESE 05:39:20 10° S
Cosmos 1626 Rocket 3.5 05:30:38 10° NNW 05:35:06 69° W 05:39:32 10° S
COSMOS 2428 3.2 05:32:07 21° WSW 05:35:11 36° NW 05:40:27 10° NNE
SL-4 R/B 4.1 05:32:52 10° SSW 05:36:01 25° SE 05:39:24 10° E
PSLV R/B 3.8 05:33:53 10° NNE 05:37:51 87° ESE 05:41:52 10° SSW
Cosmos 1092 Rocket 4.0 05:31:58 10° N 05:38:10 88° E 05:44:20 10° S
YAOGAN 6 2.5 05:35:11 10° N 05:38:54 75° WNW 05:42:34 10° SSW
Cosmos 1980 3.6 05:38:33 10° SW 05:44:11 67° WNW 05:49:50 10° NNE
Cosmos 1455 Rocket 3.8 05:40:28 10° SW 05:44:15 28° WNW 05:48:02 10° NNW
Cosmos 1300 4.0 05:43:25 10° SSE 05:47:02 44° E 05:50:40 10° NNE
Cosmos 2360 Rocket 3.9 05:46:50 14° NW 05:47:18 14° NW 05:50:09 10° N
Cosmos 2034 Rocket 4.1 05:42:14 10° SSW 05:48:27 54° WNW 05:54:42 10° N
Cosmos 44 Rocket 4.0 05:47:02 19° WNW 05:50:18 39° WSW 05:55:07 10° S
SJ-7 4.5 05:46:41 10° N 05:50:46 55° WNW 05:54:48 10° SSW
H-2A R/B 3.0 05:47:46 10° NNE 05:52:15 71° ESE 05:56:45 10° S
Nadezhda 4 Rocket 4.2 05:49:14 10° NNW 05:55:00 44° W 06:00:42 10° SSW
ATLAS CENTAUR R/B 2.4 05:51:34 10° SSW 05:55:06 43° ESE 05:58:36 10° NE
NOSS 3-2 (A) 4.2 05:50:34 10° SSW 05:56:01 55° ESE 06:02:15 10° NE
Cosmos 1758 Rocket 3.7 05:52:44 10° N 05:57:16 84° E 06:01:44 10° S
ERS-2 3.7 05:55:34 10° SW 05:58:01 17° W 05:58:04 17° W
MOS 1 Rocket 4.3 05:53:56 10° SSW 05:58:11 27° W 06:02:16 10° NW
Cosmos 540 Rocket 3.7 05:53:27 10° SW 05:58:21 45° WNW 06:03:17 10° NNE
CZ-4B DEB 4.2 05:52:53 10° NNE 05:58:28 82° WNW 06:04:02 10° SSW
Cosmos 1953 3.1 05:55:18 10° SW 05:58:48 29° WNW 06:02:18 10° NNW
BREEZE-M DEB (TANK) 3.4 05:56:45 10° SW 05:59:58 70° SSE 06:10:46 10° ENE
Okean O Rocket 2.2 05:57:53 10° NNE 06:02:14 61° ESE 06:06:31 10° S
Cosmos 1634 Rocket 4.0 05:58:25 10° S 06:04:35 85° W 06:10:49 10° N
Cosmos 1908 3.7 06:01:10 10° SW 06:04:41 35° WNW 06:08:14 10° N
USA 307 4.3 06:07:33 10° SSW 06:11:30 40° SE 06:15:28 10° ENE
Cosmos 1689 Rocket 4.0 06:10:16 10° WSW 06:11:43 13° W 06:11:43 13° W
SMAP 3.0 06:07:50 10° N 06:12:31 79° WNW 06:17:09 10° SSW
Spot 2 4.0 06:10:11 10° N 06:14:09 55° WNW 06:18:06 10° SSW
AQUARIUS 4.1 06:09:40 10° NNE 06:14:11 84° WNW 06:18:41 10° SSW
Cosmos 1602 Rocket 4.2 06:11:11 10° NNW 06:15:15 36° W 06:19:19 10° SSW
Cosmos 1461 4.1 06:12:27 10° W 06:16:34 28° NW 06:20:43 10° NNE
Cosmos 1726 Rocket 4.1 06:12:57 10° S 06:17:12 62° E 06:21:28 10° NNE
Cosmos 1892 4.2 06:13:45 10° N 06:17:21 38° ENE 06:20:57 10° SE
Cosmos 2150 Rocket 4.1 06:13:11 10° NNW 06:18:29 68° WSW 06:23:50 10° S
Cosmos 1315 Rocket 2.9 06:14:53 10° S 06:18:47 82° E 06:22:43 10° NNE
USA 308 4.1 06:16:09 10° SSW 06:20:11 46° SE 06:24:14 10° ENE
USA 305 3.9 06:16:41 10° SW 06:20:46 49° SE 06:24:52 10° ENE
CZ-2C R/B 3.8 06:20:28 10° SSW 06:22:43 15° S 06:24:54 10° SE
DMSP B5D2-2 4.1 06:18:23 10° S 06:23:37 72° WSW 06:28:54 10° NNW
Cosmos 1655 Rocket 4.5 06:22:47 10° N 06:29:02 67° E 06:35:17 10° SSE
Cosmos 841 Rocket 4.3 06:27:33 10° WSW 06:31:55 27° NW 06:36:19 10° N
Cosmos 2026 Rocket 4.3 06:26:02 10° NNW 06:32:06 49° W 06:38:10 10° SSW
USA 306 3.6 06:28:23 10° SW 06:32:34 59° SE 06:36:45 10° ENE
Cosmos 1825 Rocket 3.7 06:28:29 10° NNW 06:32:52 57° W 06:37:15 10° S
CENTAUR R/B 3.1 06:28:38 10° SSW 06:34:24 65° ESE 06:41:19 10° NE
Cosmos 1340 4.2 06:32:26 10° NW 06:34:54 17° W 06:37:20 10° SW
